Overview Statistics Trail Chart Weather Telemetry Raw packets
 

This is the latest recevied weather packets stored in our database for station/object N6GPM. If no packets are shown the sender has not sent any weather packets the latest 10 day(s).

<< 78 79 80 81 82 83 84 >>
Time Temp. Humidity Pressure Rain* Wind** Luminosity Snow
1788115122 33.33° C 31% 1017 hPa 0 mm - 950 W/m² -
1788114817 32.78° C 32% 1017.2 hPa 0 mm - 941 W/m² -
1788114513 33.33° C 31% 1016.8 hPa 0 mm - 932 W/m² -
1788114209 32.78° C 31% 1017.2 hPa 0 mm - 923 W/m² -
1788113905 32.78° C 31% 1017.3 hPa 0 mm - 913 W/m² -
1788113600 31.67° C 33% 1017.3 hPa 0 mm - 901 W/m² -
1788113299 31.67° C 34% 1017.3 hPa 0 mm - 892 W/m² -
1788112994 32.22° C 33% 1017.2 hPa 0 mm - 879 W/m² -
1788112688 31.67° C 33% 1017 hPa 0 mm - 870 W/m² -
1788112383 32.22° C 32% 1016.9 hPa 0 mm - 860 W/m² -
1788112082 32.78° C 31% 1017.3 hPa 0 mm - 845 W/m² -
1788111778 31.67° C 34% 1017.3 hPa 0 mm - 833 W/m² -
1788111472 31.11° C 35% 1017.3 hPa 0 mm - 822 W/m² -
1788111168 31.11° C 35% 1017.3 hPa 0 mm - 806 W/m² -
1788110864 30.56° C 36% 1016.9 hPa 0 mm - 792 W/m² -
1788110561 30° C 36% 1017.2 hPa 0 mm - 776 W/m² -
1788110256 29.44° C 37% 1017.3 hPa 0 mm - 759 W/m² -
1788109951 30° C 37% 1017.3 hPa 0 mm - 745 W/m² -
1788109646 29.44° C 39% 1017.3 hPa 0 mm - 729 W/m² -
1788109345 29.44° C 39% 1017 hPa 0 mm - 713 W/m² -
1788109044 28.89° C 40% 1017.2 hPa 0 mm - 696 W/m² -
1788108740 28.89° C 40% 1017.4 hPa 0 mm - 679 W/m² -
1788108436 29.44° C 40% 1017.2 hPa 0 mm - 663 W/m² -
1788108132 28.89° C 42% 1017.4 hPa 0 mm - 643 W/m² -
1788107828 28.33° C 42% 1017.3 hPa 0 mm - 626 W/m² -

* Rain latest hour (hover to see other rain measurements)
** Current wind speed in m/s (hover to see current wind gust speed)